[[{"header":{"parameterUnit":"m.s-1","parameterCategory":1,"la1":30.2991,"la2":30.254,"lo1":-89.0895,"lo2":-89.0444,"dy":0.0017,"dx":0.0017,"nx":28,"ny":28,"refTime":"2025-01-26T09:00:00:Z","depth":0,"parameterNumber":2,"parameterNumberName":"U-component_of_WINDS"},"data":[0,0,0,0,0,0,0,0,0,0,0,0,0,0,0,0,0,0,0,0,0,0,0,0,0,0,0,0,0,0,0,0,0,0,0,0,0,0,0,0,0,0,0,0,0,0,0,0,0,0,0,0,0,0,0,0,0,0,0.2469,0.2469,0,0.2461,0.2461,0.246,0.2476,0.2476,0.2477,0.2477,0.2466,0.2465,0.2465,0,0,0,0,0,0,0,0,0,0,0,0,0,0.2498,0.2497,0.2469,0.2469,0.2469,0.2461,0.2461,0.246,0.2475,0.2476,0.2477,0.2477,0.2466,0.2465,0.2464,0,0,0,0,0,0,0,0,0,0,0,0,0,0.2487,0.2497,0.2469,0.2476,0.2476,0.2461,0.2461,0.246,0.2475,0.2476,0.2477,0.2478,0.2467,0.2466,0.2464,0.2442,0,0,0.2461,0.246,0,0,0,0,0,0,0,0,0.2487,0.2486,0.2475,0.2475,0.2476,0.247,0.2467,0.2454,0.2475,0.2476,0.2477,0.2478,0.2467,0.2466,0.2462,0.2441,0.2441,0.2461,0.246,0.246,0.2459,0,0,0,0,0,0,0,0.2488,0.2486,0.2466,0.2475,0.2475,0.2479,0.2478,0.2464,0.2467,0.2476,0.2477,0.2476,0.2467,0.2463,0.2462,0.2441,0.2461,0.246,0.2459,0.2459,0.2402,0.2401,0,0,0,0,0,0,0.2488,0.2487,0.2466,0.2466,0.2484,0.2477,0.2477,0.2471,0.2467,0.2467,0.2475,0.2476,0.2465,0.2463,0.2462,0.2435,0.246,0.2458,0.2458,0.2403,0.2402,0.2401,0,0,0,0,0,0,0.2489,0.2486,0.2466,0.2476,0.2474,0.2476,0.247,0.247,0.2467,0.2467,0.2467,0.2471,0.2465,0.2463,0.2447,0.2435,0.2458,0.2457,0.2404,0.2402,0.2401,0.2382,0,0,0,0,0,0,0.249,0.2486,0.2478,0.2476,0.2474,0.2452,0.2469,0.247,0.2465,0.2467,0.2463,0.2463,0.2466,0.2449,0.2446,0.2434,0.2456,0.2405,0.2403,0.2402,0.2384,0.238,0.2378,0,0,0,0,0,0.2491,0.2472,0.2477,0.2475,0.2463,0.2451,0.245,0.2454,0.2464,0.2455,0.2455,0.2463,0.2437,0.2447,0.2444,0.2431,0.2405,0.2404,0.2402,0.2385,0.2381,0.2378,0,0,0,0,0,0,0.2471,0.2472,0.2478,0.2458,0.2455,0.2454,0.2443,0.245,0.2443,0.2444,0.245,0.2449,0.2432,0.243,0.2441,0.241,0.2423,0.242,0.2411,0.2407,0.2404,0.2405,0.2455,0,0,0,0,0,0.2465,0.2456,0.2457,0.2439,0.2438,0.2441,0.2436,0.244,0.2436,0.2434,0.2433,0.2429,0.242,0.2414,0.2405,0.2384,0.2384,0.2374,0.2371,0.2369,0.2366,0.2355,0.2351,0.2395,0.2395,0.2395,0,0,0.2451,0.245,0.2444,0.2436,0.2433,0.2423,0.2439,0.2428,0.242,0.2432,0.2417,0.2416,0.2412,0.2393,0.2385,0.2391,0.2354,0.2366,0.2364,0.2363,0.2353,0.2349,0.2345,0.2394,0.2394,0.2394,0,0,0.2421,0.242,0.2406,0.2403,0.24,0.2403,0.24,0.2398,0.2398,0.2384,0.2393,0.2384,0.2368,0.2365,0.2361,0.2332,0.2339,0.233,0.2313,0.2302,0.2299,0.2296,0.2285,0.2281,0.2327,0.2327,0.2327,0,0.2404,0.239,0.2397,0.2386,0.2382,0.2394,0.2379,0.2377,0.2371,0.2368,0.2375,0.2357,0.2355,0.2336,0.2329,0.2326,0.2322,0.2329,0.2299,0.2296,0.2293,0.2283,0.2279,0.2326,0.2326,0.2326,0.2326,0,0.2369,0.236,0.2348,0.2344,0.2339,0.2326,0.2331,0.2325,0.233,0.2332,0.2317,0.2315,0.2307,0.2303,0.2308,0.2285,0.2289,0.2298,0.2311,0.2288,0.2278,0.2275,0.2324,0.2325,0.2325,0.2325,0,0,0.2324,0.2326,0.2321,0.232,0.2318,0.2311,0.2299,0.2292,0.2287,0.2283,0.2273,0.2261,0.2269,0.2265,0.2269,0.226,0.2237,0.227,0.227,0.2263,0.2213,0.2206,0.2201,0.2242,0.2242,0.2241,0.2213,0,0.2294,0.2274,0.2281,0.2261,0.2252,0.2264,0.2254,0.2252,0.2254,0.2247,0.2249,0.224,0.2251,0.2249,0.2241,0.2242,0.2227,0.2244,0.2233,0.2232,0.2232,0.2196,0.2189,0.2162,0.221,0.2209,0.2208,0,0.2256,0.2252,0.2231,0.2232,0.2229,0.2219,0.2214,0.2207,0.2206,0.2208,0.2204,0.2211,0.2199,0.2214,0.2198,0.2209,0.2205,0.2205,0.2204,0.2203,0.2218,0.2193,0.2154,0.215,0.2203,0.2203,0.2204,0,0.2225,0.2214,0.2201,0.2199,0.22,0.2193,0.2193,0.2193,0.2189,0.2184,0.2182,0.2176,0.2172,0.2168,0.2173,0.2183,0.2156,0.2171,0.2157,0.2157,0.215,0.215,0.2109,0.2149,0.2149,0.2149,0.2149,0,0.219,0.2177,0.2187,0.2178,0.2164,0.2172,0.2158,0.2159,0.2159,0.215,0.2161,0.2153,0.2161,0.2154,0.2158,0.2144,0.2143,0.2144,0.2145,0.2142,0.2142,0.2139,0.214,0.2148,0.2148,0.2148,0.2149,0,0.2152,0.2159,0.2145,0.2148,0.2148,0.2137,0.214,0.2132,0.2136,0.2125,0.2123,0.2129,0.2121,0.2126,0.2118,0.2121,0.2103,0.2107,0.2104,0.2104,0.209,0.2091,0.2045,0.2039,0.2083,0.2083,0.2083,0,0.2129,0.2119,0.2122,0.2118,0.2117,0.211,0.2107,0.2116,0.2111,0.211,0.2102,0.2096,0.2091,0.2078,0.2081,0.2075,0.2078,0.2063,0.2077,0.2075,0.2078,0.2078,0.2077,0.2059,0.2058,0.2058,0.2058,0,0.2087,0.2091,0.2086,0.2082,0.2078,0.2075,0.2073,0.2069,0.2078,0.2073,0.2066,0.2062,0.2055,0.2048,0.2044,0.2044,0.2052,0.2053,0.205,0.2046,0.2045,0.2045,0.2095,0.2054,0.2054,0.2055,0.2055,0.2055,0.2055,0.2047,0.2048,0.2043,0.2043,0.2041,0.2034,0.2038,0.2032,0.2027,0.2033,0.2024,0.2024,0.202,0.2019,0.2012,0.2018,0.2013,0.2012,0.201,0.2008,0.2047,0.2011,0.2011,0.2012,0.2012,0.2012,0,0.2013,0.2015,0.201,0.2008,0.2003,0.2013,0.2012,0.2007,0.2,0.2,0.1995,0.1988,0.1982,0.1985,0.198,0.1974,0.1978,0.1972,0.1972,0.1972,0.2003,0.2006,0.197,0.197,0.197,0.197,0.197,0.197,0.199,0.1978,0.1983,0.197,0.1972,0.1965,0.1963,0.1962,0.1962,0.1953,0.1949,0.1952,0.1953,0.1949,0.1944,0.1945,0.1942,0.1935,0.1938,0.1966,0.197,0.1974,0.1977,0.1935,0.1935,0.1908,0.1907,0.1907]},{"header":{"parameterUnit":"m.s-1","parameterCategory":1,"la1":30.2991,"la2":30.254,"lo1":-89.0895,"lo2":-89.0444,"dy":0.0017,"dx":0.0017,"nx":28,"ny":28,"refTime":"2025-01-26T09:00:00:Z","depth":0,"parameterNumber":3,"parameterNumberName":"V-component_of_WINDS"},"data":[0,0,0,0,0,0,0,0,0,0,0,0,0,0,0,0,0,0,0,0,0,0,0,0,0,0,0,0,0,0,0,0,0,0,0,0,0,0,0,0,0,0,0,0,0,0,0,0,0,0,0,0,0,0,0,0,0,0,-4.2509,-4.2509,0,-4.2555,-4.2556,-4.2556,-4.2511,-4.2509,-4.2508,-4.2506,-4.2549,-4.2551,-4.2554,0,0,0,0,0,0,0,0,0,0,0,0,0,-4.2377,-4.2379,-4.2509,-4.2509,-4.251,-4.2555,-4.2556,-4.2556,-4.2512,-4.2509,-4.2507,-4.2505,-4.2548,-4.2551,-4.2555,0,0,0,0,0,0,0,0,0,0,0,0,0,-4.2429,-4.238,-4.2509,-4.2493,-4.2492,-4.2555,-4.2556,-4.2557,-4.2512,-4.2509,-4.2507,-4.2504,-4.2547,-4.2551,-4.2555,-4.2634,0,0,-4.2568,-4.257,0,0,0,0,0,0,0,0,-4.2427,-4.2434,-4.2495,-4.2494,-4.2493,-4.2525,-4.2525,-4.2582,-4.2513,-4.2504,-4.2506,-4.2503,-4.2543,-4.2547,-4.2561,-4.2636,-4.2638,-4.2568,-4.2571,-4.2572,-4.2574,0,0,0,0,0,0,0,-4.2423,-4.2432,-4.2527,-4.2496,-4.2495,-4.2482,-4.2487,-4.2535,-4.2538,-4.2505,-4.2502,-4.2508,-4.2542,-4.2557,-4.2562,-4.2638,-4.2568,-4.2572,-4.2574,-4.2576,-4.278,-4.2783,0,0,0,0,0,0,-4.2422,-4.2429,-4.2525,-4.2528,-4.2453,-4.2487,-4.2492,-4.2517,-4.2537,-4.2538,-4.251,-4.2506,-4.2552,-4.2557,-4.2563,-4.2658,-4.2572,-4.2576,-4.2579,-4.2777,-4.2781,-4.2784,0,0,0,0,0,0,-4.2419,-4.2431,-4.2524,-4.2478,-4.2489,-4.2492,-4.2521,-4.252,-4.2535,-4.2541,-4.2541,-4.2526,-4.255,-4.2557,-4.2617,-4.2658,-4.2578,-4.2582,-4.2774,-4.2779,-4.2783,-4.2847,0,0,0,0,0,0,-4.2415,-4.243,-4.2461,-4.2479,-4.2492,-4.2578,-4.2523,-4.2522,-4.2543,-4.2538,-4.2556,-4.2557,-4.2548,-4.2611,-4.2621,-4.2663,-4.2585,-4.277,-4.2776,-4.2781,-4.2841,-4.2853,-4.2863,0,0,0,0,0,-4.2411,-4.2476,-4.2463,-4.2475,-4.2531,-4.2581,-4.2588,-4.2578,-4.2547,-4.2578,-4.2581,-4.2556,-4.2652,-4.2618,-4.2629,-4.2672,-4.2768,-4.2774,-4.2781,-4.2836,-4.285,-4.2862,0,0,0,0,0,0,-4.2461,-4.2478,-4.2464,-4.2537,-4.2558,-4.2573,-4.2611,-4.2593,-4.2622,-4.2616,-4.2601,-4.2606,-4.2669,-4.2676,-4.2637,-4.275,-4.2705,-4.2714,-4.2743,-4.2757,-4.2767,-4.2764,-4.2589,0,0,0,0,0,-4.2481,-4.2521,-4.2534,-4.2597,-4.2608,-4.2608,-4.263,-4.2621,-4.2641,-4.2649,-4.2657,-4.2677,-4.2711,-4.2734,-4.2766,-4.2841,-4.2845,-4.2877,-4.2888,-4.2897,-4.2905,-4.2945,-4.296,-4.2806,-4.2806,-4.2806,0,0,-4.2521,-4.2536,-4.2562,-4.2608,-4.2623,-4.2664,-4.2616,-4.2661,-4.2691,-4.2655,-4.2713,-4.272,-4.274,-4.2808,-4.2838,-4.2816,-4.2948,-4.2905,-4.2912,-4.2915,-4.2953,-4.2968,-4.2981,-4.281,-4.2809,-4.2809,0,0,-4.2617,-4.2632,-4.2687,-4.2704,-4.2728,-4.2728,-4.2741,-4.2759,-4.2763,-4.2821,-4.2795,-4.2829,-4.2889,-4.2905,-4.2921,-4.3024,-4.3002,-4.3034,-4.3092,-4.3131,-4.3143,-4.3154,-4.3191,-4.3204,-4.3042,-4.3042,-4.3043,0,-4.2664,-4.2727,-4.2717,-4.2766,-4.2786,-4.2757,-4.2812,-4.2828,-4.2861,-4.2875,-4.285,-4.2925,-4.2936,-4.3008,-4.3033,-4.3047,-4.3061,-4.3032,-4.3143,-4.3153,-4.3163,-4.3198,-4.3212,-4.3046,-4.3046,-4.3045,-4.3045,0,-4.2784,-4.2828,-4.2869,-4.2904,-4.2929,-4.298,-4.2977,-4.3003,-4.2992,-4.2994,-4.3053,-4.3066,-4.31,-4.3116,-4.3105,-4.3187,-4.3172,-4.3145,-4.31,-4.3182,-4.3214,-4.3228,-4.3052,-4.305,-4.3049,-4.3048,0,0,-4.2912,-4.2942,-4.2957,-4.2973,-4.2998,-4.3031,-4.308,-4.3116,-4.3138,-4.3162,-4.3202,-4.3254,-4.323,-4.3248,-4.3238,-4.3273,-4.3354,-4.3242,-4.3242,-4.3262,-4.3444,-4.3465,-4.348,-4.3339,-4.3342,-4.3344,-4.3443,0,-4.3009,-4.3097,-4.309,-4.3173,-4.3213,-4.3186,-4.3229,-4.3248,-4.3251,-4.3285,-4.3287,-4.3324,-4.3289,-4.33,-4.3333,-4.3337,-4.339,-4.333,-4.3376,-4.3378,-4.3372,-4.3497,-4.3519,-4.3612,-4.3455,-4.3457,-4.3459,0,-4.3134,-4.3164,-4.3252,-4.3271,-4.3288,-4.3327,-4.3359,-4.3391,-4.3412,-4.3412,-4.3433,-4.3417,-4.3466,-4.342,-4.3486,-4.3445,-4.3463,-4.3468,-4.3471,-4.3475,-4.3424,-4.3505,-4.3641,-4.3655,-4.3479,-4.3477,-4.3476,0,-4.3219,-4.3281,-4.3342,-4.3356,-4.338,-4.3408,-4.3419,-4.3438,-4.346,-4.3487,-4.3501,-4.3534,-4.3551,-4.3576,-4.3569,-4.3536,-4.3637,-4.359,-4.3637,-4.3637,-4.366,-4.3658,-4.3801,-4.3671,-4.3671,-4.3671,-4.367,0,-4.3328,-4.3383,-4.3381,-4.3418,-4.3478,-4.3469,-4.3528,-4.3535,-4.3552,-4.3589,-4.3567,-4.3602,-4.3591,-4.3625,-4.3619,-4.3675,-4.3683,-4.3683,-4.3681,-4.3686,-4.3686,-4.3697,-4.3691,-4.3674,-4.3674,-4.3673,-4.3672,0,-4.3434,-4.3435,-4.3499,-4.3518,-4.3523,-4.3567,-4.3582,-4.3616,-4.3618,-4.3665,-4.3675,-4.3677,-4.3716,-4.3712,-4.3755,-4.3751,-4.3821,-4.381,-4.3814,-4.3812,-4.386,-4.3856,-4.4016,-4.4036,-4.3893,-4.3894,-4.3895,0,-4.3504,-4.3545,-4.3569,-4.3593,-4.3607,-4.3646,-4.3669,-4.3661,-4.3685,-4.3713,-4.3744,-4.3781,-4.3811,-4.3874,-4.3878,-4.3911,-4.3902,-4.3956,-4.3906,-4.391,-4.3903,-4.3901,-4.3905,-4.3965,-4.3967,-4.3968,-4.3969,0,-4.3628,-4.3626,-4.3661,-4.3697,-4.3726,-4.3753,-4.3777,-4.3798,-4.3792,-4.382,-4.3861,-4.3884,-4.3929,-4.3966,-4.3997,-4.4007,-4.3987,-4.3985,-4.3998,-4.4003,-4.4003,-4.4004,-4.3841,-4.3981,-4.398,-4.3979,-4.3978,-4.3978,-4.3718,-4.3754,-4.3776,-4.3816,-4.3834,-4.3858,-4.3892,-4.3898,-4.3933,-4.397,-4.3962,-4.4008,-4.4027,-4.4068,-4.408,-4.4115,-4.4095,-4.4114,-4.4118,-4.4123,-4.4129,-4.3998,-4.4121,-4.412,-4.412,-4.412,-4.4119,0,-4.3841,-4.3854,-4.3891,-4.3927,-4.3958,-4.3939,-4.3965,-4.3992,-4.4033,-4.4054,-4.4084,-4.4131,-4.4167,-4.4174,-4.4209,-4.4235,-4.4227,-4.4244,-4.4242,-4.4245,-4.4145,-4.413,-4.425,-4.425,-4.425,-4.425,-4.425,-4.425,-4.3909,-4.3969,-4.397,-4.4039,-4.4051,-4.4098,-4.4115,-4.4136,-4.4152,-4.4206,-4.4237,-4.4242,-4.4258,-4.4293,-4.4325,-4.4326,-4.4339,-4.4361,-4.4358,-4.4265,-4.4252,-4.4239,-4.4226,-4.4364,-4.4364,-4.4455,-4.4456,-4.4457]}]]